COSMOS 2523

导读

COSMOS 2523(宇宙2523)是独联体(CIS,实际为俄罗斯)于2017年6月23日发射的军用卫星,归入苏联/俄罗斯经典“宇宙(COSMOS)”卫星系列。该系列多承担军事侦察、空间技术试验类任务,它进入稳定轨道后,长期为俄方空间态势感知或相关国防任务提供支持,目前仍在轨运行,是俄罗斯航天军事部署体系中的一颗在轨卫星,延续了俄罗斯宇宙系列卫星的国防航天任务定位。

Basic Information
目录编号:
42986
目录名称:
COSMOS 2523
国际标识:
2017-037E
轨道中心:
EARTH
卫星名称:
COSMOS 2523
卫星全名:
--
卫星状态:
在轨 (已飞行3361 天)
发射日期:
2017-06-23 UTC
国别 :
俄罗斯(独联体) (CIS)
星等 :
--
Orbit Information
数据来源 国际轨道数据 AOE轨道数据
星历时间 2026-09-05T13:19:37+0800
4小时前
查看轨道信息
2026-09-03T08:00:00+0800
2天前
查看轨道信息
半长轴 6958.475km 6958.433km
偏心率 0.0065859 0.0065903
轨道倾角 97.500° 97.501°
近地点辐角 322.045° 329.637°
升交点赤经 257.912° 255.785°
平近点角 37.614° 313.695°
近地点 534.51km 534.437km
远地点 626.166km 626.155km
周期 96.279分钟 96.278分钟
每日圈数 14.956559 14.956695
Detailed Information
使用方式:
暂无
2D Orbit Map
3D Orbit Map
Orbit Altitude Analysis Chart
Orbit Inclination Analysis Chart
Orbit Comprehensive Analysis Chart
View Comprehensive Chart
Conjunction Data List
Event ID Objects TCA Miss Dist (km) Collision Risk Probability Collision Risk Index (CRI) Action
CDM_260906-114304-298605-266424
2026-09-06T
11:43:16+0000
1.858 km
极远距离
3.447088E-6 低风险 0.46
CDM_260905-220204-298606-893324
2026-09-05T
22:02:33+0000
1.994 km
极远距离
2.814806E-6 低风险 0.44
CDM_260901-134004-298606-372923
2026-09-01T
13:40:40+0000
2.258 km
极远距离
2.100803E-6 低风险 0.41